| time (UTC) | temp F | wind direction | speed MPH | gust MPH | rain 1hr in | rain 24hr in | rain mn in | humidity % | barometer mb |
| 20260508093024 | 48 | 45 | 0.0 | 0.0 | 0.00 | 0.35 | 0.00 | 86 | 1019.7 |
| 20260508091536 | 48 | 45 | 0.0 | 0.0 | 0.00 | 0.35 | 0.00 | 86 | 1019.7 |
| 20260508090011 | 48 | 45 | 0.0 | 0.0 | 0.00 | 0.35 | 0.00 | 87 | 1019.7 |
| 20260508084509 | 47 | 45 | 0.0 | 1.0 | 0.00 | 0.43 | 0.00 | 89 | 1019.7 |
| 20260508083005 | 46 | 45 | 0.0 | 0.0 | 0.00 | 0.43 | 0.00 | 90 | 1019.5 |
| 20260508081513 | 46 | 45 | 0.0 | 0.0 | 0.00 | 0.43 | 0.00 | 91 | 1019.6 |
| 20260508080001 | 46 | 45 | 0.0 | 1.0 | 0.00 | 0.43 | 0.00 | 91 | 1019.5 |
| 20260508074600 | 45 | 45 | 0.0 | 0.0 | 0.00 | 0.53 | 0.00 | 91 | 1019.4 |
| 20260508073107 | 45 | 45 | 0.0 | 4.0 | 0.00 | 0.53 | 0.00 | 92 | 1019.4 |
| 20260508071621 | 45 | 45 | 0.0 | 0.0 | 0.00 | 0.53 | 0.00 | 92 | 1019.3 |
| 20260508070100 | 44 | 45 | 0.0 | 0.0 | 0.00 | 0.53 | 0.00 | 92 | 1019.2 |
| 20260508064552 | 44 | 45 | 0.0 | 0.0 | 0.00 | 0.60 | 0.00 | 92 | 1019.1 |
| 20260508063050 | 44 | 45 | 0.0 | 0.0 | 0.00 | 0.60 | 0.00 | 92 | 1019.0 |
| 20260508061548 | 43 | 45 | 0.0 | 0.0 | 0.00 | 0.60 | 0.00 | 92 | 1018.7 |
| 20260508060046 | 43 | 45 | 0.0 | 0.0 | 0.00 | 0.60 | 0.00 | 93 | 1018.7 |
| 20260508054549 | 43 | 45 | 0.0 | 1.0 | 0.00 | 0.74 | 0.00 | 93 | 1018.7 |
| 20260508053050 | 43 | 45 | 0.0 | 1.0 | 0.00 | 0.74 | 0.00 | 93 | 1018.5 |
| 20260508051544 | 43 | 45 | 0.0 | 1.0 | 0.00 | 0.74 | 0.00 | 93 | 1018.5 |
| 20260508050042 | 43 | 45 | 0.0 | 0.0 | 0.00 | 0.74 | 0.00 | 92 | 1018.4 |
| 20260508044514 | 43 | 45 | 0.0 | 1.0 | 0.00 | 0.87 | 0.00 | 92 | 1018.2 |
| 20260508043015 | 43 | 45 | 0.0 | 0.0 | 0.00 | 0.87 | 0.00 | 93 | 1018.2 |
| 20260508041512 | 43 | 45 | 0.0 | 0.0 | 0.00 | 0.87 | 0.00 | 93 | 1018.1 |
| 20260508040016 | 43 | 45 | 0.0 | 1.0 | 0.00 | 0.87 | 0.00 | 92 | 1018.0 |
| 20260508034609 | 43 | 45 | 0.0 | 0.0 | 0.00 | 0.98 | 0.00 | 92 | 1017.9 |
| 20260508033008 | 43 | 45 | 0.0 | 3.0 | 0.00 | 0.98 | 0.00 | 92 | 1017.8 |
| 20260508031507 | 43 | 45 | 0.0 | 1.0 | 0.00 | 0.98 | 0.00 | 92 | 1017.8 |
| 20260508030006 | 43 | 45 | 0.0 | 3.0 | 0.00 | 0.98 | 0.00 | 92 | 1017.7 |
| 20260508024506 | 43 | 45 | 0.0 | 0.0 | 0.00 | 1.02 | 0.00 | 92 | 1017.7 |
| 20260508023006 | 43 | 45 | 0.0 | 2.0 | 0.00 | 1.02 | 0.00 | 92 | 1017.8 |
| 20260508021506 | 43 | 45 | 0.0 | 0.0 | 0.00 | 1.02 | 0.00 | 92 | 1017.6 |
| 20260508020006 | 43 | 45 | 0.0 | 3.0 | 0.00 | 1.02 | 0.00 | 92 | 1017.7 |
| 20260508014504 | 43 | 45 | 0.0 | 0.0 | 0.00 | 1.02 | 0.00 | 92 | 1017.7 |
| 20260508013002 | 43 | 45 | 0.0 | 1.0 | 0.00 | 1.02 | 0.00 | 92 | 1017.6 |
| 20260508011502 | 43 | 45 | 0.0 | 1.0 | 0.00 | 1.02 | 0.00 | 92 | 1017.6 |
| 20260508010001 | 43 | 45 | 0.0 | 1.0 | 0.00 | 1.02 | 0.00 | 92 | 1017.8 |
| 20260508004501 | 43 | 45 | 0.0 | 1.0 | 0.00 | 1.02 | 0.00 | 92 | 1017.8 |
| 20260508003101 | 43 | 45 | 0.0 | 4.0 | 0.00 | 1.02 | 0.00 | 92 | 1017.7 |
| 20260508001605 | 43 | 45 | 0.0 | 0.0 | 0.00 | 1.02 | 0.00 | 92 | 1017.7 |
| 20260508000058 | 43 | 45 | 0.0 | 2.0 | 0.00 | 1.02 | 0.00 | 92 | 1017.7 |
| 20260507234558 | 43 | 45 | 0.0 | 1.0 | 0.00 | 1.02 | 0.00 | 92 | 1017.6 |
| 20260507233057 | 44 | 45 | 0.0 | 1.0 | 0.00 | 1.02 | 0.00 | 92 | 1017.7 |
| 20260507231557 | 44 | 45 | 0.0 | 3.0 | 0.00 | 1.02 | 0.00 | 92 | 1017.8 |
| 20260507230056 | 44 | 45 | 0.0 | 0.0 | 0.00 | 1.02 | 0.00 | 92 | 1017.7 |
| 20260507224555 | 44 | 45 | 0.0 | 1.0 | 0.00 | 1.02 | 0.00 | 92 | 1017.7 |
| 20260507223053 | 44 | 45 | 0.0 | 5.0 | 0.01 | 1.02 | 0.00 | 92 | 1017.7 |
| 20260507221552 | 44 | 45 | 0.0 | 0.0 | 0.01 | 1.02 | 0.00 | 92 | 1017.7 |
| 20260507220050 | 44 | 45 | 0.0 | 0.0 | 0.01 | 1.02 | 0.00 | 92 | 1017.7 |
| 20260507214550 | 44 | 45 | 0.0 | 1.0 | 0.01 | 1.03 | 1.02 | 92 | 1017.6 |
| 20260507213055 | 44 | 45 | 0.0 | 1.0 | 0.00 | 1.02 | 1.02 | 92 | 1017.6 |
| 20260507211553 | 44 | 45 | 0.0 | 1.0 | 0.00 | 1.02 | 1.02 | 92 | 1017.5 |
| 20260507210047 | 44 | 45 | 0.0 | 0.0 | 0.00 | 1.02 | 1.02 | 92 | 1017.5 |
| 20260507204547 | 44 | 45 | 0.0 | 2.0 | 0.00 | 1.03 | 1.02 | 92 | 1017.5 |
| 20260507203046 | 44 | 45 | 0.0 | 1.0 | 0.00 | 1.03 | 1.02 | 92 | 1017.4 |
| 20260507201548 | 44 | 45 | 0.0 | 0.0 | 0.00 | 1.03 | 1.02 | 92 | 1017.2 |
| 20260507200044 | 44 | 45 | 0.0 | 1.0 | 0.00 | 1.03 | 1.02 | 92 | 1016.9 |
| 20260507194540 | 44 | 45 | 0.0 | 1.0 | 0.00 | 1.03 | 1.02 | 92 | 1017.0 |
| 20260507193042 | 44 | 45 | 0.0 | 2.0 | 0.00 | 1.03 | 1.02 | 92 | 1016.9 |
| 20260507191537 | 44 | 45 | 0.0 | 1.0 | 0.00 | 1.03 | 1.02 | 92 | 1016.7 |
| 20260507190034 | 44 | 45 | 0.0 | 0.0 | 0.00 | 1.03 | 1.02 | 92 | 1016.4 |
| 20260507184534 | 44 | 45 | 0.0 | 1.0 | 0.00 | 1.03 | 1.02 | 92 | 1016.3 |
| 20260507183036 | 44 | 45 | 0.0 | 2.0 | 0.00 | 1.03 | 1.02 | 92 | 1016.3 |
| 20260507181530 | 45 | 45 | 0.0 | 2.0 | 0.01 | 1.03 | 1.02 | 92 | 1016.2 |
| 20260507180041 | 45 | 45 | 0.0 | 1.0 | 0.01 | 1.03 | 1.02 | 92 | 1016.1 |
| 20260507174527 | 45 | 45 | 0.0 | 1.0 | 0.01 | 1.03 | 1.02 | 92 | 1015.9 |
| 20260507173029 | 45 | 45 | 0.0 | 1.0 | 0.01 | 1.03 | 1.02 | 92 | 1015.8 |
| 20260507171524 | 45 | 45 | 0.0 | 2.0 | 0.01 | 1.02 | 1.01 | 92 | 1015.6 |
| 20260507170041 | 45 | 45 | 0.0 | 3.0 | 0.02 | 1.02 | 1.01 | 92 | 1015.5 |
| 20260507164522 | 45 | 45 | 0.0 | 2.0 | 0.02 | 1.02 | 1.01 | 92 | 1015.3 |
| 20260507163020 | 45 | 45 | 0.0 | 5.0 | 0.02 | 1.02 | 1.01 | 92 | 1015.3 |
| 20260507161519 | 45 | 38 | 0.0 | 3.0 | 0.02 | 1.02 | 1.00 | 92 | 1015.2 |
| 20260507160021 | 45 | 40 | 0.0 | 4.0 | 0.02 | 1.01 | 0.99 | 92 | 1015.1 |
| 20260507154517 | 45 | 36 | 1.0 | 4.0 | 0.02 | 1.02 | 0.99 | 93 | 1015.0 |
| 20260507153016 | 44 | 37 | 0.0 | 4.0 | 0.03 | 1.02 | 0.99 | 92 | 1014.9 |
| 20260507151518 | 45 | 18 | 0.0 | 4.0 | 0.03 | 1.02 | 0.98 | 92 | 1014.8 |
| 20260507150015 | 45 | 17 | 1.0 | 4.0 | 0.03 | 1.01 | 0.98 | 92 | 1014.7 |
| 20260507144511 | 45 | 21 | 1.0 | 3.0 | 0.03 | 1.00 | 0.97 | 92 | 1014.5 |
| 20260507143010 | 45 | 24 | 0.0 | 2.0 | 0.04 | 0.99 | 0.96 | 92 | 1014.4 |
| 20260507141509 | 45 | 26 | 1.0 | 5.0 | 0.04 | 0.98 | 0.95 | 92 | 1014.3 |
| 20260507140008 | 45 | 30 | 0.0 | 3.0 | 0.04 | 0.98 | 0.94 | 92 | 1014.4 |
| 20260507134508 | 45 | 36 | 0.0 | 2.0 | 0.05 | 0.97 | 0.94 | 92 | 1014.2 |
| 20260507133005 | 45 | 39 | 0.0 | 5.0 | 0.04 | 0.95 | 0.92 | 92 | 1014.0 |
| 20260507131503 | 45 | 32 | 1.0 | 5.0 | 0.04 | 0.94 | 0.91 | 92 | 1013.8 |
| 20260507130001 | 45 | 55 | 0.0 | 2.0 | 0.05 | 0.94 | 0.91 | 92 | 1013.6 |
| 20260507124602 | 45 | 63 | 0.0 | 4.0 | 0.04 | 0.92 | 0.89 | 93 | 1013.4 |
| 20260507123058 | 45 | 55 | 1.0 | 6.0 | 0.05 | 0.91 | 0.88 | 93 | 1013.3 |
| 20260507121559 | 46 | 33 | 1.0 | 5.0 | 0.06 | 0.91 | 0.87 | 93 | 1013.0 |
| 20260507120056 | 45 | 16 | 0.0 | 4.0 | 0.06 | 0.90 | 0.87 | 93 | 1012.9 |
| 20260507114554 | 45 | 45 | 1.0 | 6.0 | 0.06 | 0.88 | 0.85 | 93 | 1012.8 |
| 20260507113052 | 45 | 50 | 2.0 | 6.0 | 0.05 | 0.87 | 0.83 | 93 | 1012.6 |
| 20260507111550 | 45 | 38 | 1.0 | 5.0 | 0.05 | 0.85 | 0.82 | 93 | 1012.6 |
| 20260507110057 | 45 | 45 | 1.0 | 6.0 | 0.05 | 0.84 | 0.81 | 93 | 1012.4 |
| 20260507104551 | 45 | 45 | 3.0 | 9.0 | 0.06 | 0.83 | 0.80 | 93 | 1012.3 |
| 20260507103111 | 45 | 45 | 1.0 | 5.0 | 0.06 | 0.82 | 0.79 | 93 | 1012.2 |
| 20260507101542 | 45 | 38 | 1.0 | 6.0 | 0.07 | 0.80 | 0.77 | 93 | 1011.9 |
| 20260507100050 | 46 | 35 | 2.0 | 8.0 | 0.09 | 0.80 | 0.76 | 93 | 1011.8 |
| 20260507094538 | 46 | 36 | 0.0 | 4.0 | 0.08 | 0.77 | 0.74 | 93 | 1011.6 |